Miscellaneous Local Product
Issued by NWS North Platte, NE

Home | Current Version | Previous Version | Text Only | Print | Product List | Glossary On
Versions: 1 2 3 4 5 6 7 8 9 10 11 12 13 14 15 16 17 18 19 20 21 22 23 24 25 26 27 28 29 30 31 32 33 34 35 36 37 38 39 40 41 42 43 44 45 46 47 48 49 50
136
AXUS43 KLBF 261310
MISLBF


WESTERN AND NORTH CENTRAL NEBRASKA HOURLY WEATHER ROUNDUP
NATIONAL WEATHER SERVICE NORTH PLATTE NE
800 AM CDT THU MAY 26 2016

NOTE: "FAIR" INDICATES FEW OR NO CLOUDS BELOW 12,000 FEET WITH NO
SIGNIFICANT WEATHER AND/OR OBSTRUCTIONS TO VISIBILITY.

NOTE: STATIONS NOT REPORTING VARIABLES SUCH AS SKY/WEATHER OR
PRESSURE ARE PROVIDED BY RAWS AND APRS NETWORKS AND ARE NOT UNDER
NATIONAL WEATHER SERVICE QUALITY CONTROL.

...OBSERVATIONS IN AND NEAR THE EASTERN PANHANDLE OF NEBRASKA...

CITY           SKY/WX    TMP DP  RH WIND       PRES   REMARKS
PINE RIDGE     SUNNY     48  43  82 CALM      29.91S
CHADRON        SUNNY     46  42  86 SW3       29.92S
ALLIANCE       SUNNY     44  42  93 SW3       29.94R
SIDNEY         CLOUDY    48  43  82 SW5       29.99R
CRESCENT LAKE    N/A     50  46  87 W5          N/A
BIG SPRINGS      N/A     52  50  92 SW3         N/A
$$

...OBSERVATIONS IN NORTHERN NEBRASKA AND FAR SOUTHERN SOUTH DAKOTA...

CITY           SKY/WX    TMP DP  RH WIND       PRES   REMARKS
WINNER         FAIR      57  51  80 SW3       29.88R
VALENTINE      MOSUNNY   52  48  86 CALM      29.89S
THEDFORD       CLOUDY    58  50  74 W5        29.91R
AINSWORTH      PTSUNNY   55  52  91 CALM      29.88F
O`NEILL        MOSUNNY   60  55  82 CALM      29.89F
ORD            MOSUNNY   58  53  84 S3        29.89S
BROKEN BOW     PTSUNNY   58  52  80 SE3       29.90S
BUTTE            N/A     60  53  78 NE6         N/A
CHAMBERS         N/A     65  58  77 E3          N/A
EWING            N/A     61  56  83 CALM        N/A
$$

...OBSERVATIONS IN SOUTHWEST NEBRASKA AND FAR NORTHEAST COLORADO...

CITY           SKY/WX    TMP DP  RH WIND       PRES   REMARKS
WRAY           FAIR      55  50  82 NW9       29.93R
IMPERIAL       MOSUNNY   55  51  86 N5        29.91S
OGALLALA       CLOUDY    52  49  89 CALM      29.95R
NORTH PLATTE   CLOUDY    54  52  93 E7        29.90S
MCCOOK         SUNNY     55  51  86 NE6       29.89F
LEXINGTON      CLOUDY    56  53  88 CALM      29.90F
PAXTON           N/A     53  51  94 SE3         N/A
STAPLETON        N/A     52  49  90 CALM        N/A
GOTHENBURG       N/A     54  49  83 CALM        N/A
CALLAWAY         N/A     54  51  89 CALM        N/A
$$

...OBSERVATIONS IN CENTRAL LINCOLN COUNTY AREA...

CITY           SKY/WX    TMP DP  RH WIND       PRES   REMARKS
N.P. AIRPORT   CLOUDY    54  52  93 E7        29.90S
N.P. DOWNTOWN    N/A     55  53  93 CALM        N/A
N.P. SOUTHEAST   N/A     56  51  85 CALM        N/A
N.P. HILLCREST   N/A     54  51  90 W6G15       N/A
$$

...SOME OBSERVATIONS FROM AROUND THE REGION...

CITY           SKY/WX    TMP DP  RH WIND       PRES   REMARKS
DENVER         PTSUNNY   51  43  74 W7        30.00F
LARAMIE        CLOUDY    37  32  82 S3        30.06S
CHEYENNE       SUNNY     44  34  67 NW7       30.02S
SCOTTSBLUFF    SUNNY     48  42  80 NW6       29.96R
RAPID CITY     SUNNY     52  46  80 N9        29.91R
BISMARCK       SUNNY     51  46  83 W6        29.83R
PIERRE         SUNNY     54  50  86 CALM      29.86R
SIOUX FALLS    MOSUNNY   62  51  67 N9        29.86R
OMAHA          MOSUNNY   65  59  81 CALM      29.88S
GRAND ISLAND   MOSUNNY   60  56  86 N7        29.90R
KANSAS CITY    MOSUNNY   68  63  84 SE3       29.90R
WICHITA        PTSUNNY   77  72  84 SE13      29.81F HAZE
OKLAHOMA CITY  CLOUDY    76  74  93 S16       29.85F
DALLAS         CLOUDY    79  73  82 S20       29.90R
AMARILLO       SUNNY     67  54  63 SW15      29.86F
DODGE CITY     SUNNY     65  65 100 S10       29.79F FOG
HAYS           CLOUDY    55  52  88 NE16      29.82S
GOODLAND       SUNNY     56  48  74 N5        29.89S
$$




USA.gov is the U.S. government's official web portal to all federal, state and local government web resources and services.